Regional Weather Roundup
Issued by NWS

Home | Current Version | Previous Version | Graphics & Text | Print | Product List | Glossary Off
Versions: 1 2 3 4 5 6 7 8 9 10 11 12 13 14 15 16 17 18 19 20 21 22 23 24 25 26 27 28 29 30 31 32 33 34 35 36 37 38 39 40 41 42 43 44 45 46 47 48 49 50

000
ASUS45 KBOU 200207
RWRCO

WEATHER ROUNDUP FOR COLORADO
NATIONAL WEATHER SERVICE DENVER/BOULDER CO
800 PM MDT FRI SEP 19 2014

NOTE: "FAIR" INDICATES FEW OR NO CLOUDS BELOW 12000 FEET WITH NO
SIGNIFICANT WEATHER AND/OR OBSTRUCTIONS TO VISIBILITY.

COZ001>005-013-030-031-200300-
...NORTHWEST COLORADO...

CITY           SKY/WX    TMP DP  RH WIND       PRES   REMARKS
CRAIG          MOCLDY    61  47  59 S3        30.12R
HAYDEN         MOCLDY    70  41  35 W3        30.14R
MEEKER         NOT AVBL
MOUNT WERNER   NOT AVBL
STEAMBOAT SPGS MOCLDY    66  45  45 CALM      30.17R
WALDEN         PTCLDY    55  36  47 N10       30.25R
$$

COZ006>008-011-200300-
...WEST CENTRAL VALLEYS...

CITY           SKY/WX    TMP DP  RH WIND       PRES   REMARKS
GRAND JUNCTION CLEAR     77  44  30 N7        29.97R
MONTROSE       CLEAR     73  48  41 S6        30.07R
EAGLE          PTCLDY    73  43  33 SW7       30.13R
RIFLE          PTCLDY    76  44  32 W3        30.04R
DELTA          CLEAR     82  37  19 SW5       30.00S
NUCLA          CLEAR     77  41  27 NW3       30.10R
$$

COZ017>023-064>068-200300-
...SOUTHWEST COLORADO...

CITY           SKY/WX    TMP DP  RH WIND       PRES   REMARKS
DURANGO        PTCLDY    73  43  33 SW7       30.09R
CORTEZ         CLEAR     73  45  36 N6        30.06R
PAGOSA SPRINGS CLOUDY    64  44  47 N6        30.22R THUNDER
TELLURIDE      NOT AVBL
WOLF CREEK PAS CLOUDY    50  32  50 S10G18    30.51F
$$

COZ009-010-012-014-032>034-037-058>063-200300-
...CENTRAL COLORADO...

CITY           SKY/WX    TMP DP  RH WIND       PRES   REMARKS
ASPEN          PTCLDY    64  41  42 S5        30.22R
BUENA VISTA    PTCLDY    64  34  32 CALM      30.23R
COPPER MTN     PTCLDY    54  32  43 W17       30.55R
BERTHOUD PASS  FAIR      45  43  93 NW16G23   30.59S
COTTONWOOD PAS PTCLDY    64  30  27 CALM      30.37R
GUNNISON       CLEAR     66  37  34 N5        30.22R
KREMMLING      PTCLDY    63  36  36 CALM      30.21R
LEADVILLE      PTCLDY    56  32  40 N3        30.37R
SALIDA         PTCLDY    69  37  30 SW5       30.25R
SUNLIGHT       PTCLDY    57  39  51 W6        30.47R
WILKERSON PASS NOT AVBL
$$

COZ069>075-200300-
...SAN LUIS VALLEY/SANGRE DE CRISTO MOUNTAINS...

CITY           SKY/WX    TMP DP  RH WIND       PRES   REMARKS
ALAMOSA        PTCLDY    66  32  28 SE9       30.15R
LA VETA PASS   CLEAR     55  28  35 NE13      30.38R
SAGUACHE       NOT AVBL
$$

COZ035-036-038>040-200300-
...NORTHERN COLORADO FRONT RANGE...

CITY           SKY/WX    TMP DP  RH WIND       PRES   REMARKS
DENVER INTL AP MOCLDY    71  44  37 S12       30.00R
DMNS CITY PARK   N/A     73  47  38 S5        29.99S
AURORA         PTCLDY    70  43  37 SE10      30.03R
FRONT RANGE AP NOT AVBL
ERIE MUNI ARPT PTCLDY    74  46  36 NE3       30.00R
BOULDER MUN AP PTCLDY    73  43  33 S3        29.99S
CENTENNIAL     PTCLDY    71  44  37 S7        30.04R
BROOMFIELD     MOCLDY    77  41  27 W7        30.03R
FORT COLLINS   MOCLDY    75  46  35 E13       30.00R
LONGMONT       MOCLDY    74  52  46 E6        30.01R
$$

COZ041-046-047-076>085-087-088-200300-
...PIKES PEAK/PALMER DIVIDE AND SOUTHERN FOOTHILLS...

CITY           SKY/WX    TMP DP  RH WIND       PRES   REMARKS
COLO. SPRINGS  PTCLDY    73  41  31 CALM      30.08R
A. F. ACADEMY  MOCLDY    68  38  33 N8        30.10R
ELLICOTT       NOT AVBL
FALCON         PTCLDY    65  39  38 NE3       30.14R
FORT CARSON    PTCLDY    75  40  28 W6        30.05R
LIMON          CLEAR     67  40  37 S3        30.01R
MONUMENT HILL  MOCLDY    68  36  30 SE3       30.13S
TRINIDAD       CLEAR     71  40  32 SW9       30.02R
$$

COZ042>045-048>051-090-091-200300-
...NORTHEAST COLORADO...

CITY           SKY/WX    TMP DP  RH WIND       PRES   REMARKS
GREELEY ARPT   MOCLDY    72  46  40 E3        29.98R
AKRON          MOCLDY    75  45  34 E10       29.96R
BURLINGTON     CLEAR     76  57  51 S12       29.94R
WRAY           MOCLDY    77  52  41 CALM      29.89R
STERLING       MOCLDY    72  61  68 CALM      29.92S THUNDER
HOLYOKE        MOCLDY    79  52  38 N7        29.91R
FORT MORGAN    MOCLDY    68  51  53 N9        29.97R
$$

COZ086-089-092>099-200300-
...SOUTHEAST COLORADO...

CITY           SKY/WX    TMP DP  RH WIND       PRES   REMARKS
PUEBLO         PTCLDY    77  39  25 E3        29.94R
LA JUNTA       CLEAR     74  41  30 NE7       29.90R
LAMAR          CLEAR     77  60  55 S17       29.88R
SPRINGFIELD      N/A     70  60  70 S16       29.98R
$$



USA.gov is the U.S. government's official web portal to all federal, state and local government web resources and services.